Location: Lake Arresoe
(56.0000°N, 12.5000°E)
Time: 16:32:25
(UTC+02:00)

Resurs 1-4 Rocket - Pass Details

Date: 02 August 2021
Orbit: 799 x 814 km, 98.6° (Epoch: 27 September)

Event Time Altitude Azimuth Distance (km) Brightness Sun altitude
Rises 03:49:49 0° 14° (NNE) 3,350 6.7 -9.5°
Reaches altitude 10° 03:52:14 10° 9° (N) 2,412 5.7 -9.3°
Maximum altitude 03:57:20 49° 297° (WNW) 1,047 2.6 -8.9°
Enters shadow 04:02:19 10° 224° (SW) 2,360 3.8 -8.4°
